Weather History for Bishop, CA

Change the Weather History Date:

Monday, June 3, 2013

  Actual Average Record
Temperature  
Mean Temperature 79 °F 68 °F  
Max Temperature 96 °F 88 °F 100 °F (1960)
Min Temperature 61 °F 48 °F 31 °F (2011)
Degree Days  
Heating Degree Days 0 2  
Month to date heating degree days 0 6  
Since 1 June heating degree days 0 6  
Since 1 July heating degree days 3851 4164  
Cooling Degree Days 14 5  
Month to date cooling degree days 33 14  
Year to date cooling degree days 119 82  
Since 1 June cooling degree days 33 14  
Growing Degree Days 30 (Base 50)    
Moisture  
Dew Point 31 °F    
Average Humidity 21    
Maximum Humidity 34    
Minimum Humidity 8    
Precipitation  
Precipitation 0.00 in 0.01 in 0.56 in (1998)
Month to date precipitation 0.00 0.02  
Year to date precipitation 0.47 2.90  
Snow  
Snow 0.00 in 0.00 in - ()
Month to date snowfall 0.0 0.0  
Since 1 June snowfall 0.0 0.0  
Since 1 July snowfall 2.8 6.8  
Snow Depth 0.00 in    
Sea Level Pressure  
Sea Level Pressure 29.70 in    
Wind  
Wind Speed 8 mph (NNW)    
Max Wind Speed 26 mph    
Max Gust Speed 32 mph    
Visibility 10 miles    
Events      
T = Trace of Precipitation, MM = Missing Value Source: NWS Daily Summary

Daily Weather History Graph

Daily Weather History Graph

Search for Another Location

Airport:

Trip Planner

Search our weather history database for the weather conditions in past years. The results will help you decide how hot, cold, wet, or windy it might be!

Date:

Astronomy

Jun. 03, 2013 Rise Set
Actual Time 5:33 AM PDT 8:10 PM PDT
Civil Twilight 5:02 AM PDT 8:40 PM PDT
Nautical Twilight 4:24 AM PDT 9:18 PM PDT
Astronomical Twilight 3:42 AM PDT 10:01 PM PDT
Moon 2:28 AM PDT (6/3) 3:49 PM PDT (6/3)
Length of Visible Light 15h 37m
Length of Day
14h 36m
Waning Crescent, 21% of the Moon is Illuminated
Jun 3
Waning Crescent
Jun 8
New
Jun 16
First Quarter
Jun 23
Full
Jun 29
Last Quarter

Hourly Weather History & Observations

Time (PDT) Temp. Dew Point Humidity Pressure Visibility Wind Dir Wind Speed Gust Speed Precip Events Conditions
12:56 AM 64.0 °F 32.0 °F 30% 29.67 in 10.0 mi Calm Calm - N/A   Unknown
1:56 AM 63.0 °F 34.0 °F 34% 29.66 in 10.0 mi North 3.5 mph - N/A   Unknown
2:56 AM 63.0 °F 33.1 °F 33% 29.67 in 10.0 mi WNW 3.5 mph - N/A   Unknown
3:56 AM 66.0 °F 34.0 °F 30% 29.67 in 10.0 mi NNE 11.5 mph - N/A   Clear
4:56 AM 68.0 °F 33.1 °F 27% 29.68 in 10.0 mi NNW 9.2 mph - N/A   Clear
5:56 AM 64.9 °F 33.1 °F 31% 29.71 in 10.0 mi NNW 9.2 mph - N/A   Clear
6:56 AM 69.1 °F 35.1 °F 29% 29.73 in 10.0 mi NW 3.5 mph - N/A   Clear
7:56 AM 75.9 °F 30.0 °F 19% 29.75 in 10.0 mi North 15.0 mph 23.0 mph N/A   Clear
8:56 AM 79.0 °F 28.9 °F 16% 29.75 in 10.0 mi North 17.3 mph - N/A   Clear
9:56 AM 82.9 °F 28.9 °F 14% 29.75 in 10.0 mi NNE 8.1 mph - N/A   Clear
10:56 AM 87.1 °F 28.9 °F 12% 29.75 in 10.0 mi North 6.9 mph - N/A   Unknown
11:56 AM 89.1 °F 30.0 °F 12% 29.72 in 10.0 mi Variable 3.5 mph - N/A   Unknown
12:56 PM 89.1 °F 28.9 °F 12% 29.70 in 10.0 mi Calm Calm - N/A   Unknown
1:56 PM 93.0 °F 26.1 °F 9% 29.68 in 10.0 mi SE 9.2 mph - N/A   Unknown
2:56 PM 93.9 °F 27.0 °F 9% 29.65 in 10.0 mi South 10.4 mph 19.6 mph N/A   Unknown
3:56 PM 93.9 °F 25.0 °F 8% 29.62 in 10.0 mi North - - N/A   Unknown
4:56 PM 91.0 °F 26.1 °F 10% 29.62 in 10.0 mi South 11.5 mph - N/A   Unknown
5:56 PM 90.0 °F 27.0 °F 10% 29.64 in 10.0 mi SW 5.8 mph - N/A   Unknown
6:56 PM 84.9 °F 30.9 °F 14% 29.68 in 10.0 mi West 12.7 mph 24.2 mph N/A   Unknown
7:56 PM 84.0 °F 32.0 °F 15% 29.70 in 10.0 mi NW 16.1 mph 24.2 mph N/A   Unknown
8:56 PM 78.1 °F 36.0 °F 22% 29.73 in 10.0 mi WNW 9.2 mph 21.9 mph N/A   Unknown
9:56 PM 72.0 °F 37.0 °F 28% 29.75 in 10.0 mi East 4.6 mph - N/A   Unknown
10:56 PM 69.1 °F 36.0 °F 30% 29.75 in 10.0 mi NNW 5.8 mph - N/A   Unknown
11:56 PM 66.9 °F 37.9 °F 34% 29.76 in 10.0 mi Calm Calm - N/A   Unknown